Location: Old Broadwell Mill Observatory
(33.8015°N, 85.8137°W)
Time: 11:41:47
(UTC-05:00)

Daily predictions for brighter satellites

Satellite Brightness Start Highest point End
(mag) Time Altitude Azimuth Time Altitude Azimuth Time Altitude Azimuth
Meteor 2-3 Rocket 4.2 20:11:42 10° SSE 20:17:03 42° E 20:22:22 10° NNE
Milstar 3 4.3 20:06:03 10° SW 20:20:26 44° SSE 20:28:30 10° E
In-Cosmos 22 Rocket 4.3 20:14:56 10° S 20:20:41 83° E 20:26:32 10° N
Cosmos 2082 Rocket 2.7 20:16:38 10° NNW 20:22:13 63° WSW 20:27:48 10° S
H-2A R/B 4.2 20:19:14 10° S 20:22:57 41° W 20:26:42 10° NNW
Star 37E S/N 40062 3.8 20:23:46 10° WSW 20:25:31 29° S 20:28:22 10° ESE
NOSS 3-2 (A) 4.4 20:21:41 10° SW 20:27:27 54° NW 20:33:45 10° NNE
Cosmos 2344 4.4 20:22:22 10° SSE 20:28:28 25° ESE 20:34:35 10° NE
Cosmos 1825 4.2 20:28:21 10° ESE 20:29:40 12° E 20:31:00 10° ENE
Cosmos 1833 Rocket 3.4 20:25:43 10° NNW 20:31:12 54° WSW 20:36:38 10° S
Spot 2 Rocket 3.6 20:27:07 10° SSE 20:32:13 87° WSW 20:37:22 10° NNW
Helios 1B rocket 2.8 20:35:34 10° NNE 20:39:29 42° E 20:43:22 10° S
Tsikada Rocket 4.1 20:33:17 10° S 20:39:31 81° W 20:45:44 10° N
Cosmos 1315 Rocket 4.4 20:38:28 10° SSW 20:42:14 39° WNW 20:46:04 10° N
OAO 3 Copernicus 4.4 20:39:15 10° WSW 20:44:09 56° SSE 20:49:05 10° E
Cosmos 1892 2.7 20:42:37 10° S 20:46:29 84° W 20:50:20 10° N
NOSS 3-2 (C) 4.4 20:42:26 10° SW 20:48:11 51° NW 20:54:28 10° NNE
USA 186 2.6 20:45:49 10° S 20:48:16 39° W 20:50:55 10° NNW
ISS -1.9 20:46:45 10° WSW 20:49:44 33° NW 20:52:44 10° NNE
Cosmos 1943 Rocket 2.7 20:45:13 10° S 20:50:19 37° ESE 20:55:24 10° NE
Envisat 3.3 20:54:11 10° S 20:59:13 70° WSW 21:04:18 10° NNW
Cosmos 2263 4.2 20:54:02 10° S 20:59:41 61° ESE 21:05:21 10° NNE
Spot 1 4.5 20:56:22 16° SSE 20:59:59 58° ENE 21:04:52 10° N
Cosmos 1634 Rocket 4.1 20:54:56 10° N 21:01:10 61° E 21:06:36 14° SSE
Tiangong 2 1.9 20:58:41 10° NW 21:01:48 45° NNE 21:03:24 24° E
TIMED 4.5 20:57:30 10° SSW 21:01:52 89° E 21:06:15 10° NNE
Cosmos 1900 4.5 20:57:00 10° NNW 21:02:09 65° ENE 21:05:27 22° SE
CENTAUR R/B 2.3 20:56:42 10° SSW 21:02:26 67° ESE 21:08:55 10° NE
Cosmos 372 Rocket 4.3 20:58:37 10° S 21:03:25 42° ESE 21:08:14 10° NNE
CZ-3A R/B 2.7 21:01:09 10° SW 21:03:38 14° SSW 21:04:10 14° S
COSMOS 2455 3.3 21:02:05 10° SW 21:08:02 65° WNW 21:14:01 10° NNE
Cosmos 1340 4.3 21:05:53 10° NNE 21:08:34 18° ENE 21:08:45 18° E
Helios 1A 2.9 21:05:41 17° SSE 21:08:50 88° ENE 21:13:03 10° NNW
SPOT 5 4.3 21:08:10 20° ESE 21:10:16 26° ENE 21:14:35 10° NNE
CZ-4B DEB 2.5 21:09:44 39° SE 21:10:34 62° ENE 21:13:28 10° N
Cosmos 2369 Rocket 2.4 21:06:12 10° SSW 21:11:49 73° WNW 21:17:30 10° NNE
Cosmos 1125 Rocket 3.4 21:08:41 10° S 21:13:53 68° ESE 21:19:05 10° NNE
Resurs 01 Rocket 3.9 21:12:30 10° SW 21:15:53 22° W 21:19:18 10° NW
OAO 2 Rocket 4.1 21:11:36 10° W 21:16:16 38° SSW 21:18:25 26° SSE
SAR-Lupe-4 3.5 21:17:05 36° SE 21:18:21 66° ENE 21:21:54 10° N
Delta 168 4.1 21:15:22 10° WSW 21:18:32 25° S 21:18:59 25° SSE
Lacrosse 5 rocket 3.1 21:19:04 10° WSW 21:22:14 29° NW 21:25:27 10° NNE
Cosmos 1606 3.0 21:19:37 10° N 21:23:15 43° E 21:23:46 40° ESE
Delta 7925 Rocket 4.3 21:20:35 10° SW 21:24:49 29° SSE 21:25:14 28° SSE
Shenzhou-11 Module 1.8 21:22:17 10° WNW 21:25:22 85° SSW 21:25:36 73° SE
YAOGAN 6 3.2 21:23:55 22° S 21:26:08 55° W 21:29:46 10° NNW
Cosmos 1346 Rocket 4.0 21:22:27 10° NNW 21:26:11 40° W 21:29:25 13° SSW
Cosmos 1939 Rocket 4.3 21:24:57 10° SSW 21:28:41 36° W 21:32:31 10° NNW
Cosmos 2279 Rocket 4.0 21:28:46 10° N 21:35:00 67° E 21:38:02 31° SSE
MetOp-B 4.1 21:35:40 36° SSE 21:37:52 68° ENE 21:43:11 10° N
ATLAS 5 CENTAUR R/B 3.1 21:32:58 10° NNW 21:38:41 41° NE 21:41:08 30° E
SAR-Lupe-1 4.1 21:39:07 53° SSW 21:39:49 73° WSW 21:43:23 10° NNW
Okean 1-7 3.1 21:36:41 10° N 21:41:05 74° W 21:42:46 37° S
GPS 2-04 Rocket1 2.5 21:38:00 10° WNW 21:41:42 71° N 21:42:02 64° NE
Meteor 1-27 Rocket 4.1 21:36:28 10° N 21:41:59 46° ENE 21:43:18 39° ESE
Aureole 3 4.2 21:40:47 20° SW 21:42:22 35° W 21:45:07 10° NNW
Meteor 1-10 Rocket 4.2 21:36:42 10° N 21:42:40 85° E 21:45:26 33° S
H-2A R/B 2.7 21:42:09 36° ESE 21:43:19 40° ENE 21:48:18 10° N
Cosmos 1656 Rocket 3.7 21:48:00 46° SE 21:48:55 52° ESE 21:54:14 10° NNE
ARGOS 3.1 21:47:37 45° SE 21:49:16 72° ENE 21:54:38 10° N
Meteor 2-6 Rocket 4.3 21:45:31 10° N 21:51:30 88° W 21:54:03 37° S
Cosmos 158 Rocket 3.7 21:47:01 10° NNW 21:51:54 74° ENE 21:52:45 58° SE
Cosmos 2180 Rocket 4.4 21:45:56 10° N 21:52:20 76° E 21:54:48 40° SSE
Cosmos 1408 3.8 21:52:26 24° SW 21:54:08 40° W 21:57:39 10° N
Cosmos 1733 Rocket 2.9 22:01:47 76° ENE 22:01:47 76° ENE 22:05:57 10° N
Cosmos 1782 3.8 22:00:21 10° NNW 22:04:07 42° W 22:04:51 37° WSW
Cosmos 1825 3.8 22:03:11 22° SW 22:04:52 31° W 22:08:16 10° NNW
ERS-1 Rocket 3.7 22:03:32 32° SSW 22:05:29 48° W 22:10:22 10° NNW
SL-08 RB Rocket 3.6 22:07:02 77° SSE 22:07:23 90° ESE 22:12:05 10° NNW
Nimbus 7 Rocket 4.3 22:07:34 10° NNE 22:13:28 89° E 22:15:18 47° SSW
Landsat 7 4.2 22:17:28 52° NE 22:17:28 52° NE 22:21:39 10° N
Cosmos 1048 Rocket 4.2 22:13:58 10° NNW 22:19:11 61° WSW 22:19:56 54° SW
Cosmos 1862 4.4 22:19:33 40° W 22:19:50 40° W 22:23:37 10° N
Meteor 2-20 4.3 22:20:23 65° SSE 22:21:16 76° E 22:27:23 10° N
Meteor 2-20 Rocket 4.5 22:22:12 59° E 22:22:19 59° E 22:28:19 10° NNE
USA 215 3.2 22:22:28 57° SE 22:23:58 84° NE 22:30:34 10° NW
Lacrosse 4 Rocket 1.9 22:22:04 10° NNW 22:25:48 61° NNW 22:25:48 61° NNW
Cosmos 2026 Rocket 4.5 22:28:05 43° ENE 22:28:05 43° ENE 22:33:18 10° NNE
OAO 3 Copernicus 4.4 22:23:36 10° W 22:28:15 73° WNW 22:28:15 73° WNW
Cosmos 2219 4.2 22:25:20 10° N 22:30:23 34° ENE 22:30:23 34° ENE
Terra 2.5 22:33:08 46° NNE 22:33:08 46° NNE 22:36:48 10° N
ATLAS CENTAUR R/B 4.0 22:36:09 11° NNE 22:36:09 11° NNE 22:36:24 10° NNE
Cosmos 1943 Rocket 4.2 22:29:33 10° WSW 22:34:04 25° WNW 22:38:38 10° N
BREEZE-M DEB (TANK) 4.1 22:36:03 39° ENE 22:36:03 39° ENE 22:42:28 10° NE
DMSP B5D2-2 4.2 22:33:06 10° N 22:38:18 70° WNW 22:38:33 68° W
SPOT 1/Viking Rocket 3.9 22:41:31 55° WSW 22:41:34 55° W 22:46:41 10° NNW
Cosmos 2251 Rocket 4.1 22:36:43 10° N 22:40:56 46° NE 22:40:56 46° NE
Cosmos 2344 4.4 22:34:55 10° SW 22:42:16 48° NW 22:50:16 10° NNE
SPOT 5 4.2 22:47:25 33° WSW 22:48:05 34° W 22:52:55 10° NNW
H-2A R/B 3.8 22:53:59 26° N 22:53:59 26° N 22:55:54 10° N
Cosmos 1092 Rocket 4.2 22:51:58 56° WSW 22:52:49 62° W 22:58:54 10° N
GEOS 3 Rocket 4.1 22:54:47 54° NNE 22:54:47 54° NNE 22:59:11 10° NNW
Cosmos 1627 Rocket 4.4 23:01:30 81° NW 23:01:30 81° NW 23:07:38 10° N
Milstar 3 3.3 22:55:07 10° WSW 23:03:20 54° SW 23:03:20 54° SW
Cosmos 2297 Rocket 3.9 23:14:37 10° N 23:18:14 22° NE 23:18:14 22° NE
H-2A R/B 4.0 23:22:48 21° W 23:22:48 21° W 23:26:48 10° NW
ATLAS 5 CENTAUR R/B 3.7 23:17:50 10° NW 23:22:41 32° W 23:22:41 32° W
